Printer-friendly version

IAU Minor Planet Center

Minor Planet Center

MPEC 2008-T52 : 2008 TC3

The following Minor Planet Electronic Circular may be linked-to from your own Web pages, but must not otherwise be redistributed electronically.


Read MPEC 2008-T51 Read MPEC 2008-T53


M.P.E.C. 2008-T52                                Issued 2008 Oct. 6, 19:15 UT

     The Minor Planet Electronic Circulars contain information on unusual
         minor planets and routine data on comets.  They are published
   on behalf of Commission 20 of the International Astronomical Union by the
          Minor Planet Center, Smithsonian Astrophysical Observatory,
                          Cambridge, MA 02138, U.S.A.

             Prepared using the Tamkin Foundation Computer Network

                              MPC@CFA.HARVARD.EDU
          URL http://www.cfa.harvard.edu/iau/mpc.html  ISSN 1523-6714

                                   2008 TC3

                           Revision to MPEC 2008-T51

Additional Observations:
     K08T03C  C2008 10 06.73866 23 25 38.89 +07 46 34.4          17.6   ET052114
     K08T03C  C2008 10 06.73963 23 25 39.28 +07 46 37.5          17.5   ET052114
     K08T03C  C2008 10 06.74060 23 25 39.66 +07 46 40.1          17.8   ET052114
     K08T03C  C2008 10 06.74156 23 25 40.05 +07 46 43.2          17.4   ET052114
     K08T03C  C2008 10 06.74539 23 27 16.09 +07 41 02.3          17.7 R ET052106
     K08T03C  C2008 10 06.74702 23 27 17.94 +07 41 08.2          18.3 R ET052106
     K08T03C  C2008 10 06.74715 23 25 42.17 +07 46 59.9          17.4   ET052114
     K08T03C  C2008 10 06.74784 23 27 18.93 +07 41 09.4          17.5 R ET052106
     K08T03C  C2008 10 06.74812 23 25 42.53 +07 47 02.4          17.4   ET052114
     K08T03C  C2008 10 06.74910 23 25 42.91 +07 47 05.1          17.3   ET052114
     K08T03C  C2008 10 06.75005 23 25 43.27 +07 47 08.0          17.5   ET052114
     K08T03C  C2008 10 06.75091 23 25 43.54 +07 47 10.3          17.4   ET052114
     K08T03C  C2008 10 06.76219 23 27 50.95 +07 40 55.5          16.9 R ET052143
     K08T03C  C2008 10 06.76733 23 27 57.85 +07 41 12.1          17.1 R ET052143
     K08T03C  C2008 10 06.77212 23 28 04.23 +07 41 27.6          17.2 R ET052143
     K08T03C  C2008 10 06.77745 23 28 11.26 +07 41 45.1          17.0 R ET052143

Observer details:
106 Crni Vrh.  Observer J. Skvarc.  0.6-m f/3.3 Deltagraph + CCD.
114 Engelhardt Observatory, Zelenchukskaya Station.  Observers T. Kryachko,
    S. Korotkiy, B. Satovski.  Measurers T. Kryachko, S. Korotkiy.  0.3-m
    f/7.7 reflector + CCD.
143 Gnosca.  Observer S. Sposetti.  0.40-m f/4 reflector + CCD.

Orbital elements:
2008 TC3                                                 Earth MOID = 0.0000 AU
Epoch 2008 Oct. 6.0 TT = JDT 2454745.5                  MPC
M 328.47918              (2000.0)            P               Q
n   0.68816950     Peri.  233.95105     +0.37341441     -0.92761161
a   1.2705910      Node   194.13267     +0.86364656     +0.35152832
e   0.2852374      Incl.    2.32813     +0.33863890     +0.12635087
P   1.43           H   30.4           G   0.15           U   6
Residuals in seconds of arc
081006 G96  0.5+  0.1-    081006 D90  0.1-  0.3+    081006 114  0.5+  0.4+
081006 G96  0.1+  0.2-    081006 D90  0.9-  0.7+    081006 114  0.5+  0.1+
081006 G96  0.3-  0.4-    081006 E12  0.2-  0.3-    081006 114  0.7+  0.4+
081006 G96  0.1+  0.2-    081006 E12  0.2-  0.1-    081006 106  0.1+  0.7-
081006 G96  0.1+  0.2-    081006 E12  0.1-  0.0-    081006 106  1.7-  0.0-
081006 G96  0.0-  0.1-    081006 E12  0.3+  0.7+    081006 114  0.3+  0.6+
081006 854  1.0-  0.9+    081006 E12  0.9+  0.2+    081006 106  1.7-  1.5-
081006 G96  0.0+  0.2-    081006 E12  0.2-  0.6-    081006 114  0.3+  0.3+
081006 854  0.0+  0.2-    081006 E12  0.9-  0.3-    081006 114  0.5+  0.1+
081006 854  0.2-  1.0+    081006 E12  0.0-  0.4-    081006 114  0.7+  0.2+
081006 G96  0.1-  0.0-    081006 114  0.5+  0.3+    081006 114  0.0-  0.0+
081006 G96  0.2+  0.1-    081006 114  0.0+  0.1+    081006 143  0.3-  0.3-
081006 G96  0.4+  0.2-    081006 114  0.2+  0.6+    081006 143  0.1+  0.4-
081006 G96  0.3+  0.2-    081006 114  0.6+  0.5+    081006 143  0.2+  0.5-
081006 G96  0.4+  0.2-    081006 114  0.8-  0.2+    081006 143  0.2-  0.4-
081006 D90  0.0-  0.1-    081006 114  0.5+  0.2+

Ephemeris:
2008 TC3                 a,e,i = 1.27, 0.29, 2                   q = 0.9082
Date    TT    R. A. (2000) Decl.     Delta      r     Elong.  Phase     V
2008 10 06.75 23 23.75   +08 44.2    0.00152  1.001   158.2    21.8    17.4
2008 10 06.76 23 24.04   +08 46.0    0.00148  1.001   158.3    21.7    17.3
2008 10 06.77 23 24.34   +08 47.8    0.00144  1.001   158.3    21.6    17.2
2008 10 06.78 23 24.66   +08 49.7    0.00140  1.001   158.4    21.6    17.2
2008 10 06.79 23 25.00   +08 51.7    0.00136  1.001   158.5    21.5    17.1
2008 10 06.80 23 25.36   +08 53.8    0.00132  1.001   158.6    21.4    17.1
2008 10 06.81 23 25.74   +08 56.0    0.00129  1.001   158.6    21.3    17.0
2008 10 06.82 23 25.86   +08 56.7    0.00125  1.001   158.6    21.3    16.9
2008 10 06.83 23 26.30   +08 59.4    0.00121  1.001   158.7    21.2    16.8
2008 10 06.84 23 26.79   +09 02.2    0.00117  1.001   158.8    21.1    16.8
2008 10 06.85 23 27.33   +09 05.4    0.00113  1.001   159.0    21.0    16.7
2008 10 06.86 23 27.92   +09 08.9    0.00109  1.000   159.1    20.9    16.6
2008 10 06.87 23 28.56   +09 12.7    0.00105  1.000   159.2    20.7    16.5
2008 10 06.88 23 29.27   +09 16.8    0.00101  1.000   159.4    20.6    16.5
2008 10 06.89 23 30.03   +09 21.3    0.00098  1.000   159.5    20.4    16.4
2008 10 06.90 23 30.86   +09 26.1    0.00094  1.000   159.7    20.3    16.3
2008 10 06.91 23 31.76   +09 31.3    0.00090  1.000   159.9    20.1    16.2
2008 10 06.92 23 32.73   +09 37.0    0.00086  1.000   160.1    19.9    16.1
2008 10 06.93 23 33.77   +09 43.0    0.00082  1.000   160.4    19.6    16.0
2008 10 06.94 23 32.87   +09 37.8    0.00080  1.000   160.1    19.8    15.9
2008 10 06.95 23 34.03   +09 44.5    0.00076  1.000   160.4    19.6    15.8
2008 10 06.96 23 35.39   +09 52.4    0.00072  1.000   160.7    19.3    15.7
2008 10 06.97 23 36.98   +10 01.5    0.00067  1.000   161.0    19.0    15.5
2008 10 06.98 23 38.82   +10 12.1    0.00063  1.000   161.4    18.6    15.4
2008 10 06.99 23 40.95   +10 24.3    0.00059  1.000   161.9    18.1    15.2
2008 10 07.00 23 43.42   +10 38.2    0.00054  1.000   162.4    17.6    15.0
2008 10 07.01 23 46.26   +10 54.2    0.00049  1.000   163.0    17.0    14.8
2008 10 07.02 23 49.54   +11 12.6    0.00045  1.000   163.7    16.3    14.5
2008 10 07.03 23 53.35   +11 33.6    0.00040  1.000   164.4    15.6    14.3
2008 10 07.04 23 57.80   +11 57.9    0.00035  1.000   165.2    14.8    13.9
2008 10 07.05 00 03.09   +12 26.3    0.00030  1.000   166.2    13.8    13.6
2008 10 07.06 00 09.50   +13 00.1    0.00025  1.000   167.2    12.8    13.2
2008 10 07.07 01 05.85   +17 23.2    0.00018  1.000   167.7    12.3    12.4
2008 10 07.08 01 30.29   +18 56.5    0.00014  1.000   163.6    16.4    12.0
2008 10 07.09 02 06.33   +20 49.3    0.00010  0.999   156.3    23.7    11.5
2008 10 07.10 03 13.91   +22 58.7    0.00006  0.999   141.6    38.4    10.8
2008 10 07.11 06 13.44   +19 54.7    0.00003  0.999   100.9    79.1    10.8

Gareth V. Williams           (C) Copyright 2008 MPC           M.P.E.C. 2008-T52

Read MPEC 2008-T51 Read MPEC 2008-T53


Our Web policy. Index to the CBAT/MPC/ICQ pages.


Valid HTML 4.01!